Time,TemperatureF,DewpointF,PressureIn,WindDirection,WindDirectionDegrees,WindSpeedMPH,WindSpeedGustMPH,Humidity,HourlyPrecipIn,Conditions,Clouds,dailyrainin,SoftwareType,DateUTC
2013-07-25 00:02:00,60.9,57.1,29.99,NNE,23,0.0,0.0,87,0.00,,,0.00,WUHU216HW,2013-07-25 05:02:00,
2013-07-25 00:07:00,60.8,56.9,29.99,NNE,23,0.0,0.0,87,0.00,,,0.00,WUHU216HW,2013-07-25 05:07:00,
2013-07-25 00:12:00,60.6,57.0,29.99,NNE,23,0.0,0.0,88,0.00,,,0.00,WUHU216HW,2013-07-25 05:12:00,
2013-07-25 00:17:00,60.6,57.0,29.99,NNE,23,0.0,0.0,88,0.00,,,0.00,WUHU216HW,2013-07-25 05:17:00,
2013-07-25 00:22:00,60.6,57.0,29.99,NNE,23,0.0,0.0,88,0.00,,,0.00,WUHU216HW,2013-07-25 05:22:00,
2013-07-25 00:27:00,60.6,57.0,29.99,NNE,23,0.0,0.0,88,0.00,,,0.00,WUHU216HW,2013-07-25 05:27:00,
2013-07-25 00:32:00,60.4,56.5,29.99,NNE,23,0.0,0.0,87,0.00,,,0.00,WUHU216HW,2013-07-25 05:32:00,
2013-07-25 00:37:00,60.4,56.5,29.99,SSE,158,0.0,0.0,87,0.00,,,0.00,WUHU216HW,2013-07-25 05:37:00,
2013-07-25 00:42:00,60.4,56.5,29.99,SSE,158,0.0,0.0,87,0.00,,,0.00,WUHU216HW,2013-07-25 05:42:00,
2013-07-25 00:47:00,60.2,56.4,29.99,SSE,158,0.0,0.0,87,0.00,,,0.00,WUHU216HW,2013-07-25 05:47:00,
2013-07-25 00:52:00,60.0,56.2,29.99,SSE,158,0.0,0.0,87,0.00,,,0.00,WUHU216HW,2013-07-25 05:52:00,
2013-07-25 00:57:00,60.0,56.2,29.99,SSE,158,0.0,0.0,87,0.00,,,0.00,WUHU216HW,2013-07-25 05:57:00,
2013-07-25 01:02:00,60.0,56.2,29.99,SSE,158,0.0,0.0,87,0.00,,,0.00,WUHU216HW,2013-07-25 06:02:00,
2013-07-25 01:07:00,60.0,56.2,29.99,SSE,158,0.0,0.0,87,0.00,,,0.00,WUHU216HW,2013-07-25 06:07:00,
2013-07-25 01:12:00,60.0,56.2,29.98,SSE,158,0.0,0.0,87,0.00,,,0.00,WUHU216HW,2013-07-25 06:12:00,
2013-07-25 01:17:00,59.9,56.3,29.99,SSE,158,0.0,0.0,88,0.00,,,0.00,WUHU216HW,2013-07-25 06:17:00,
2013-07-25 01:22:00,59.9,56.3,29.98,SSE,158,0.0,0.0,88,0.00,,,0.00,WUHU216HW,2013-07-25 06:22:00,
2013-07-25 01:27:00,59.7,56.1,29.98,SSE,158,0.0,0.0,88,0.00,,,0.00,WUHU216HW,2013-07-25 06:27:00,
2013-07-25 01:32:00,59.7,56.1,29.98,SSE,158,0.0,0.0,88,0.00,,,0.00,WUHU216HW,2013-07-25 06:32:00,
2013-07-25 01:37:00,59.7,56.1,29.98,SSE,158,0.0,0.0,88,0.00,,,0.00,WUHU216HW,2013-07-25 06:37:00,
2013-07-25 01:42:00,59.7,56.5,29.98,SSE,158,0.0,0.0,89,0.00,,,0.00,WUHU216HW,2013-07-25 06:42:00,
2013-07-25 01:47:00,59.7,56.5,29.98,SSE,158,0.0,0.0,89,0.00,,,0.00,WUHU216HW,2013-07-25 06:47:00,
2013-07-25 01:52:00,60.0,56.5,29.98,South,180,0.0,1.3,88,0.00,,,0.00,WUHU216HW,2013-07-25 06:52:00,
2013-07-25 01:58:00,60.0,56.5,29.97,SSW,203,0.0,1.3,88,0.00,,,0.00,WUHU216HW,2013-07-25 06:58:00,
2013-07-25 02:03:00,60.4,57.2,29.99,South,180,0.0,1.1,89,0.00,,,0.00,WUHU216HW,2013-07-25 07:03:00,
2013-07-25 02:07:00,60.4,57.2,29.99,South,180,0.0,1.1,89,0.00,,,0.00,WUHU216HW,2013-07-25 07:07:00,
2013-07-25 02:08:00,60.4,57.2,29.99,South,180,0.0,1.1,89,0.00,,,0.00,WUHU216HW,2013-07-25 07:08:00,
2013-07-25 02:09:00,60.4,57.2,29.99,South,180,0.0,1.1,89,0.00,,,0.00,WUHU216HW,2013-07-25 07:09:00,
2013-07-25 02:11:00,60.4,57.2,29.99,South,180,0.0,0.0,89,0.00,,,0.00,WUHU216HW,2013-07-25 07:11:00,
2013-07-25 02:12:00,60.4,57.2,29.99,South,180,0.0,0.0,89,0.00,,,0.00,WUHU216HW,2013-07-25 07:12:00,
2013-07-25 02:14:00,60.2,57.0,29.99,South,180,0.0,0.0,89,0.00,,,0.00,WUHU216HW,2013-07-25 07:14:00,
2013-07-25 02:15:00,60.2,57.0,29.99,South,180,0.0,0.0,89,0.00,,,0.00,WUHU216HW,2013-07-25 07:15:00,
2013-07-25 02:17:00,60.0,56.8,29.99,South,180,0.0,0.0,89,0.00,,,0.00,WUHU216HW,2013-07-25 07:17:00,
2013-07-25 02:18:00,60.0,56.8,29.99,South,180,0.0,0.0,89,0.00,,,0.00,WUHU216HW,2013-07-25 07:18:00,
2013-07-25 02:20:00,60.0,56.8,29.99,South,180,0.0,0.0,89,0.00,,,0.00,WUHU216HW,2013-07-25 07:20:00,
2013-07-25 02:21:00,59.9,56.6,29.99,South,180,0.0,0.0,89,0.00,,,0.00,WUHU216HW,2013-07-25 07:21:00,
2013-07-25 02:23:00,59.7,56.5,29.99,South,180,0.0,0.0,89,0.00,,,0.00,WUHU216HW,2013-07-25 07:23:00,
2013-07-25 02:24:00,59.7,56.5,29.99,South,180,0.0,0.0,89,0.00,,,0.00,WUHU216HW,2013-07-25 07:24:00,
2013-07-25 02:26:00,59.7,56.5,29.99,South,180,0.0,0.0,89,0.00,,,0.00,WUHU216HW,2013-07-25 07:26:00,
2013-07-25 02:27:00,59.7,56.5,29.99,South,180,0.0,0.0,89,0.00,,,0.00,WUHU216HW,2013-07-25 07:27:00,
2013-07-25 02:29:00,59.7,56.5,29.99,South,180,0.0,0.0,89,0.00,,,0.00,WUHU216HW,2013-07-25 07:29:00,
2013-07-25 02:30:00,59.7,56.5,29.99,South,180,0.0,0.0,89,0.00,,,0.00,WUHU216HW,2013-07-25 07:30:00,
2013-07-25 02:32:00,59.5,56.3,29.99,South,180,0.0,0.0,89,0.00,,,0.00,WUHU216HW,2013-07-25 07:32:00,
2013-07-25 02:33:00,59.5,56.3,29.99,South,180,0.0,0.0,89,0.00,,,0.00,WUHU216HW,2013-07-25 07:33:00,
2013-07-25 02:35:00,59.5,56.3,29.99,South,180,0.0,0.0,89,0.00,,,0.00,WUHU216HW,2013-07-25 07:35:00,
2013-07-25 02:36:00,59.5,56.3,29.99,South,180,0.0,0.0,89,0.00,,,0.00,WUHU216HW,2013-07-25 07:36:00,
2013-07-25 02:38:00,59.5,56.3,29.99,South,180,0.0,0.0,89,0.00,,,0.00,WUHU216HW,2013-07-25 07:38:00,
2013-07-25 02:39:00,59.5,56.3,29.99,South,180,0.0,0.0,89,0.00,,,0.00,WUHU216HW,2013-07-25 07:39:00,
2013-07-25 02:41:00,59.3,56.1,29.99,South,180,0.0,0.0,89,0.00,,,0.00,WUHU216HW,2013-07-25 07:41:00,
2013-07-25 02:42:00,59.3,56.1,29.99,South,180,0.0,0.0,89,0.00,,,0.00,WUHU216HW,2013-07-25 07:42:00,
2013-07-25 02:44:00,59.3,56.1,29.99,South,180,0.0,0.0,89,0.00,,,0.00,WUHU216HW,2013-07-25 07:44:00,
2013-07-25 02:45:00,59.3,56.1,29.99,South,180,0.0,0.0,89,0.00,,,0.00,WUHU216HW,2013-07-25 07:45:00,
2013-07-25 02:47:00,59.3,56.1,29.99,SSW,203,0.0,0.0,89,0.00,,,0.00,WUHU216HW,2013-07-25 07:47:00,
2013-07-25 02:48:00,59.3,56.1,30.00,SSW,203,0.0,0.0,89,0.00,,,0.00,WUHU216HW,2013-07-25 07:48:00,
2013-07-25 02:50:00,59.3,56.1,29.99,SSW,203,0.0,0.0,89,0.00,,,0.00,WUHU216HW,2013-07-25 07:50:00,
2013-07-25 02:51:00,59.3,56.1,29.99,SSW,203,0.0,0.0,89,0.00,,,0.00,WUHU216HW,2013-07-25 07:51:00,
2013-07-25 02:53:00,59.1,56.3,30.00,SSW,203,0.0,0.0,90,0.00,,,0.00,WUHU216HW,2013-07-25 07:53:00,
2013-07-25 02:54:00,59.1,56.3,30.00,SSW,203,0.0,0.0,90,0.00,,,0.00,WUHU216HW,2013-07-25 07:54:00,
2013-07-25 02:56:00,59.3,56.4,30.00,SW,225,0.0,0.0,90,0.00,,,0.00,WUHU216HW,2013-07-25 07:56:00,
2013-07-25 02:57:00,59.3,56.4,30.00,SW,225,1.5,1.5,90,0.00,,,0.00,WUHU216HW,2013-07-25 07:57:00,
2013-07-25 02:59:00,59.1,56.3,30.00,South,180,1.3,1.5,90,0.00,,,0.00,WUHU216HW,2013-07-25 07:59:00,
2013-07-25 03:00:00,59.1,56.3,30.00,South,180,1.3,1.5,90,0.00,,,0.00,WUHU216HW,2013-07-25 08:00:00,
2013-07-25 03:02:00,59.0,56.1,30.00,South,180,1.3,1.5,90,0.00,,,0.00,WUHU216HW,2013-07-25 08:02:00,
2013-07-25 03:03:00,58.8,55.9,30.00,South,180,1.3,1.5,90,0.00,,,0.00,WUHU216HW,2013-07-25 08:03:00,
2013-07-25 03:05:00,58.8,55.9,30.00,South,180,0.0,1.5,90,0.00,,,0.00,WUHU216HW,2013-07-25 08:05:00,
2013-07-25 03:06:00,59.1,56.3,30.00,South,180,0.0,1.5,90,0.00,,,0.00,WUHU216HW,2013-07-25 08:06:00,
2013-07-25 03:08:00,59.3,56.4,30.00,South,180,0.0,1.3,90,0.00,,,0.00,WUHU216HW,2013-07-25 08:08:00,
2013-07-25 03:10:00,59.3,56.4,30.00,South,180,0.0,1.3,90,0.00,,,0.00,WUHU216HW,2013-07-25 08:10:00,
2013-07-25 03:11:00,59.3,56.4,30.00,SSW,203,1.1,1.3,90,0.00,,,0.00,WUHU216HW,2013-07-25 08:11:00,
2013-07-25 03:13:00,59.3,56.4,30.00,South,180,1.1,1.3,90,0.00,,,0.00,WUHU216HW,2013-07-25 08:13:00,
2013-07-25 03:15:00,59.5,56.6,30.00,SSW,203,1.7,1.7,90,0.00,,,0.00,WUHU216HW,2013-07-25 08:15:00,
2013-07-25 03:16:00,59.5,56.6,30.00,SSW,203,1.7,1.7,90,0.00,,,0.00,WUHU216HW,2013-07-25 08:16:00,
2013-07-25 03:18:00,59.5,56.6,30.00,South,180,1.5,1.7,90,0.00,,,0.00,WUHU216HW,2013-07-25 08:18:00,
2013-07-25 03:19:00,59.5,56.6,30.00,South,180,1.5,1.7,90,0.00,,,0.00,WUHU216HW,2013-07-25 08:19:00,
2013-07-25 03:21:00,59.5,56.6,30.00,South,180,1.5,1.7,90,0.00,,,0.00,WUHU216HW,2013-07-25 08:21:00,
2013-07-25 03:22:00,59.5,56.6,30.00,South,180,0.0,1.7,90,0.00,,,0.00,WUHU216HW,2013-07-25 08:22:00,
2013-07-25 03:24:00,59.3,56.4,30.00,South,180,0.0,1.7,90,0.00,,,0.00,WUHU216HW,2013-07-25 08:24:00,
2013-07-25 03:25:00,59.3,56.4,30.00,South,180,0.0,1.7,90,0.00,,,0.00,WUHU216HW,2013-07-25 08:25:00,
2013-07-25 03:27:00,59.1,56.3,29.99,South,180,0.0,1.5,90,0.00,,,0.00,WUHU216HW,2013-07-25 08:27:00,
2013-07-25 03:28:00,58.8,55.9,29.99,South,180,0.0,1.5,90,0.00,,,0.00,WUHU216HW,2013-07-25 08:28:00,
2013-07-25 03:30:00,58.8,55.9,30.00,South,180,0.0,1.5,90,0.00,,,0.00,WUHU216HW,2013-07-25 08:30:00,
2013-07-25 03:31:00,58.8,55.9,29.99,South,180,0.0,0.0,90,0.00,,,0.00,WUHU216HW,2013-07-25 08:31:00,
2013-07-25 03:33:00,58.8,55.9,29.99,South,180,0.0,0.0,90,0.00,,,0.00,WUHU216HW,2013-07-25 08:33:00,
2013-07-25 03:34:00,58.8,55.9,29.99,South,180,1.1,1.1,90,0.00,,,0.00,WUHU216HW,2013-07-25 08:34:00,
2013-07-25 03:36:00,58.8,55.9,30.00,South,180,1.1,1.1,90,0.00,,,0.00,WUHU216HW,2013-07-25 08:36:00,
2013-07-25 03:37:00,58.8,55.9,30.00,South,180,1.1,1.1,90,0.00,,,0.00,WUHU216HW,2013-07-25 08:37:00,
2013-07-25 03:39:00,58.8,55.9,30.00,South,180,0.0,1.1,90,0.00,,,0.00,WUHU216HW,2013-07-25 08:39:00,
2013-07-25 03:40:00,58.8,55.9,30.00,South,180,0.0,1.1,90,0.00,,,0.00,WUHU216HW,2013-07-25 08:40:00,
2013-07-25 03:42:00,58.8,55.9,30.00,South,180,2.6,2.6,90,0.00,,,0.00,WUHU216HW,2013-07-25 08:42:00,
2013-07-25 03:43:00,58.8,55.9,29.99,South,180,2.2,2.6,90,0.00,,,0.00,WUHU216HW,2013-07-25 08:43:00,
2013-07-25 03:45:00,58.8,56.2,30.00,South,180,3.1,3.1,91,0.00,,,0.00,WUHU216HW,2013-07-25 08:45:00,
2013-07-25 03:46:00,58.8,56.2,30.00,South,180,3.1,3.1,91,0.00,,,0.00,WUHU216HW,2013-07-25 08:46:00,
2013-07-25 03:48:00,58.8,56.2,30.00,South,180,3.1,3.1,91,0.00,,,0.00,WUHU216HW,2013-07-25 08:48:00,
2013-07-25 03:49:00,58.8,56.2,30.00,South,180,2.6,3.1,91,0.00,,,0.00,WUHU216HW,2013-07-25 08:49:00,
2013-07-25 03:51:00,58.8,56.2,30.00,South,180,2.6,3.1,91,0.00,,,0.00,WUHU216HW,2013-07-25 08:51:00,
2013-07-25 03:52:00,58.8,56.2,30.00,South,180,2.2,3.1,91,0.00,,,0.00,WUHU216HW,2013-07-25 08:52:00,
2013-07-25 03:54:00,58.8,56.2,30.00,SSW,203,2.2,3.1,91,0.00,,,0.00,WUHU216HW,2013-07-25 08:54:00,
2013-07-25 03:55:00,58.8,56.2,30.00,SSW,203,2.2,3.1,91,0.00,,,0.00,WUHU216HW,2013-07-25 08:55:00,
2013-07-25 03:57:00,58.8,56.2,30.00,South,180,1.3,3.1,91,0.00,,,0.00,WUHU216HW,2013-07-25 08:57:00,
2013-07-25 03:58:00,58.8,56.2,29.99,SSW,203,4.4,4.4,91,0.00,,,0.00,WUHU216HW,2013-07-25 08:58:00,
2013-07-25 04:00:00,58.8,56.2,29.99,South,180,1.3,4.4,91,0.00,,,0.00,WUHU216HW,2013-07-25 09:00:00,
2013-07-25 04:01:00,58.8,56.2,30.00,South,180,1.3,4.4,91,0.00,,,0.00,WUHU216HW,2013-07-25 09:01:00,
2013-07-25 04:03:00,58.8,56.2,29.99,South,180,0.0,4.4,91,0.00,,,0.00,WUHU216HW,2013-07-25 09:03:00,
2013-07-25 04:04:00,58.8,56.2,30.00,South,180,1.3,4.4,91,0.00,,,0.00,WUHU216HW,2013-07-25 09:04:00,
2013-07-25 04:06:00,58.8,56.2,29.99,South,180,1.3,4.4,91,0.00,,,0.00,WUHU216HW,2013-07-25 09:06:00,
2013-07-25 04:07:00,59.0,56.4,29.99,South,180,2.6,4.4,91,0.00,,,0.00,WUHU216HW,2013-07-25 09:07:00,
2013-07-25 04:09:00,59.1,56.5,30.00,South,180,2.6,2.6,91,0.00,,,0.00,WUHU216HW,2013-07-25 09:09:00,
2013-07-25 04:10:00,59.1,56.5,29.99,South,180,2.6,2.6,91,0.00,,,0.00,WUHU216HW,2013-07-25 09:10:00,
2013-07-25 04:12:00,59.3,56.7,29.99,SSW,203,1.3,2.6,91,0.00,,,0.00,WUHU216HW,2013-07-25 09:12:00,
2013-07-25 04:13:00,59.5,56.9,29.99,SSW,203,1.3,2.6,91,0.00,,,0.00,WUHU216HW,2013-07-25 09:13:00,
2013-07-25 04:15:00,59.7,57.1,29.99,SSW,203,2.2,2.6,91,0.00,,,0.00,WUHU216HW,2013-07-25 09:15:00,
2013-07-25 04:16:00,59.7,57.1,29.99,SSW,203,2.2,2.6,91,0.00,,,0.00,WUHU216HW,2013-07-25 09:16:00,
2013-07-25 04:18:00,59.9,57.3,29.99,South,180,1.5,2.6,91,0.00,,,0.00,WUHU216HW,2013-07-25 09:18:00,
2013-07-25 04:19:00,59.9,57.4,29.99,South,180,1.3,2.6,91,0.00,,,0.00,WUHU216HW,2013-07-25 09:19:00,
2013-07-25 04:21:00,60.0,57.4,29.99,South,180,1.3,2.2,91,0.00,,,0.00,WUHU216HW,2013-07-25 09:21:00,
2013-07-25 04:22:00,60.0,57.4,30.00,South,180,1.3,2.2,91,0.00,,,0.00,WUHU216HW,2013-07-25 09:22:00,
2013-07-25 04:24:00,60.0,57.2,30.00,SSW,203,1.3,2.2,90,0.00,,,0.00,WUHU216HW,2013-07-25 09:24:00,
2013-07-25 04:25:00,60.0,57.2,29.99,SSW,203,1.3,2.2,90,0.00,,,0.00,WUHU216HW,2013-07-25 09:25:00,
2013-07-25 04:27:00,60.0,57.2,29.99,SSW,203,2.2,2.2,90,0.00,,,0.00,WUHU216HW,2013-07-25 09:27:00,
2013-07-25 04:28:00,60.0,57.2,29.99,SSE,158,1.3,2.2,90,0.00,,,0.00,WUHU216HW,2013-07-25 09:28:00,
2013-07-25 04:30:00,60.0,57.2,29.99,South,180,2.0,2.2,90,0.00,,,0.00,WUHU216HW,2013-07-25 09:30:00,
2013-07-25 04:31:00,60.0,57.2,29.99,South,180,2.0,2.2,90,0.00,,,0.00,WUHU216HW,2013-07-25 09:31:00,
2013-07-25 04:32:00,60.0,57.2,29.99,South,180,1.7,2.2,90,0.00,,,0.00,WUHU216HW,2013-07-25 09:32:00,
2013-07-25 04:34:00,60.0,57.2,29.99,South,180,1.5,2.2,90,0.00,,,0.00,WUHU216HW,2013-07-25 09:34:00,
2013-07-25 04:35:00,60.0,57.2,29.99,South,180,1.5,2.2,90,0.00,,,0.00,WUHU216HW,2013-07-25 09:35:00,
2013-07-25 04:37:00,60.0,57.2,29.99,South,180,0.0,2.0,90,0.00,,,0.00,WUHU216HW,2013-07-25 09:37:00,
2013-07-25 04:38:00,60.0,57.2,29.99,South,180,0.0,2.0,90,0.00,,,0.00,WUHU216HW,2013-07-25 09:38:00,
2013-07-25 04:40:00,60.0,57.2,30.00,South,180,0.0,2.0,90,0.00,,,0.00,WUHU216HW,2013-07-25 09:40:00,
2013-07-25 04:41:00,60.0,57.2,30.00,SSE,158,1.3,1.7,90,0.00,,,0.00,WUHU216HW,2013-07-25 09:41:00,
2013-07-25 04:43:00,60.0,57.2,30.00,SSW,203,1.1,1.5,90,0.00,,,0.00,WUHU216HW,2013-07-25 09:43:00,
2013-07-25 04:44:00,60.0,57.2,30.00,SSW,203,1.1,1.5,90,0.00,,,0.00,WUHU216HW,2013-07-25 09:44:00,
2013-07-25 04:46:00,60.0,57.2,30.00,SSW,203,2.4,2.4,90,0.00,,,0.00,WUHU216HW,2013-07-25 09:46:00,
2013-07-25 04:47:00,60.0,57.2,30.00,South,180,2.0,2.4,90,0.00,,,0.00,WUHU216HW,2013-07-25 09:47:00,
2013-07-25 04:49:00,60.0,57.2,30.00,South,180,2.0,2.4,90,0.00,,,0.00,WUHU216HW,2013-07-25 09:49:00,
2013-07-25 04:50:00,60.0,57.2,30.00,South,180,1.1,2.4,90,0.00,,,0.00,WUHU216HW,2013-07-25 09:50:00,
2013-07-25 04:52:00,60.4,57.5,30.00,South,180,2.0,2.4,90,0.00,,,0.00,WUHU216HW,2013-07-25 09:52:00,
2013-07-25 04:53:00,60.4,57.5,30.00,South,180,2.0,2.4,90,0.00,,,0.00,WUHU216HW,2013-07-25 09:53:00,
2013-07-25 04:55:00,60.4,57.5,30.00,South,180,2.4,2.4,90,0.00,,,0.00,WUHU216HW,2013-07-25 09:55:00,
2013-07-25 04:56:00,60.4,57.5,30.00,South,180,0.8,2.4,90,0.00,,,0.00,WUHU216HW,2013-07-25 09:56:00,
2013-07-25 04:58:00,60.4,57.5,30.00,South,180,0.0,2.4,90,0.00,,,0.00,WUHU216HW,2013-07-25 09:58:00,
2013-07-25 04:59:00,60.4,57.5,30.00,South,180,0.0,2.4,90,0.00,,,0.00,WUHU216HW,2013-07-25 09:59:00,
2013-07-25 05:01:00,60.0,57.2,30.00,South,180,0.0,2.4,90,0.00,,,0.00,WUHU216HW,2013-07-25 10:01:00,
2013-07-25 05:02:00,60.0,57.2,29.99,South,180,1.5,2.4,90,0.00,,,0.00,WUHU216HW,2013-07-25 10:02:00,
2013-07-25 05:04:00,60.0,57.2,29.99,South,180,0.0,2.4,90,0.00,,,0.00,WUHU216HW,2013-07-25 10:04:00,
2013-07-25 05:05:00,60.0,57.2,29.99,South,180,0.0,1.5,90,0.00,,,0.00,WUHU216HW,2013-07-25 10:05:00,
2013-07-25 05:07:00,60.0,57.2,29.99,South,180,3.3,3.3,90,0.00,,,0.00,WUHU216HW,2013-07-25 10:07:00,
2013-07-25 05:08:00,60.0,57.2,30.00,South,180,3.3,3.3,90,0.00,,,0.00,WUHU216HW,2013-07-25 10:08:00,
2013-07-25 05:10:00,60.0,57.2,30.00,South,180,3.1,3.3,90,0.00,,,0.00,WUHU216HW,2013-07-25 10:10:00,
2013-07-25 05:11:00,60.0,57.2,30.00,SSW,203,1.7,3.3,90,0.00,,,0.00,WUHU216HW,2013-07-25 10:11:00,
2013-07-25 05:13:00,60.2,57.3,30.00,SSW,203,1.7,3.3,90,0.00,,,0.00,WUHU216HW,2013-07-25 10:13:00,
2013-07-25 05:14:00,60.2,57.3,30.00,SSW,203,1.7,3.3,90,0.00,,,0.00,WUHU216HW,2013-07-25 10:14:00,
2013-07-25 05:16:00,60.2,57.3,30.00,SSW,203,2.0,3.3,90,0.00,,,0.00,WUHU216HW,2013-07-25 10:16:00,
2013-07-25 05:17:00,60.2,57.3,30.00,South,180,2.2,3.3,90,0.00,,,0.00,WUHU216HW,2013-07-25 10:17:00,
2013-07-25 05:19:00,60.2,57.5,30.00,South,180,1.3,3.1,90,0.00,,,0.00,WUHU216HW,2013-07-25 10:19:00,
2013-07-25 05:20:00,60.4,57.5,29.99,South,180,1.3,2.2,90,0.00,,,0.00,WUHU216HW,2013-07-25 10:20:00,
2013-07-25 05:22:00,60.4,57.5,30.00,South,180,2.6,2.6,90,0.00,,,0.00,WUHU216HW,2013-07-25 10:22:00,
2013-07-25 05:23:00,60.4,57.5,30.00,South,180,2.6,2.6,90,0.00,,,0.00,WUHU216HW,2013-07-25 10:23:00,
2013-07-25 05:25:00,60.4,57.5,30.00,South,180,2.4,2.6,90,0.00,,,0.00,WUHU216HW,2013-07-25 10:25:00,
2013-07-25 05:26:00,60.4,57.5,30.00,South,180,2.9,2.9,90,0.00,,,0.00,WUHU216HW,2013-07-25 10:26:00,
2013-07-25 05:28:00,60.4,57.5,30.00,South,180,4.0,4.0,90,0.00,,,0.00,WUHU216HW,2013-07-25 10:28:00,
2013-07-25 05:29:00,60.4,57.5,30.00,South,180,4.0,4.0,90,0.00,,,0.00,WUHU216HW,2013-07-25 10:29:00,
2013-07-25 05:31:00,60.4,57.5,30.00,South,180,4.0,4.0,90,0.00,,,0.00,WUHU216HW,2013-07-25 10:31:00,
2013-07-25 05:32:00,60.4,57.5,30.00,South,180,2.9,4.0,90,0.00,,,0.00,WUHU216HW,2013-07-25 10:32:00,
2013-07-25 05:34:00,60.4,57.5,30.00,South,180,3.1,4.0,90,0.00,,,0.00,WUHU216HW,2013-07-25 10:34:00,
2013-07-25 05:35:00,60.4,57.5,30.00,South,180,3.1,4.0,90,0.00,,,0.00,WUHU216HW,2013-07-25 10:35:00,
2013-07-25 05:37:00,60.4,57.5,30.00,SSW,203,3.1,4.0,90,0.00,,,0.00,WUHU216HW,2013-07-25 10:37:00,
2013-07-25 05:38:00,60.4,57.5,30.00,SSW,203,3.1,4.0,90,0.00,,,0.00,WUHU216HW,2013-07-25 10:38:00,
2013-07-25 05:40:00,60.4,57.5,30.00,South,180,2.4,4.0,90,0.00,,,0.00,WUHU216HW,2013-07-25 10:40:00,
2013-07-25 05:41:00,60.4,57.5,30.00,South,180,2.0,3.1,90,0.00,,,0.00,WUHU216HW,2013-07-25 10:41:00,
2013-07-25 05:43:00,60.4,57.5,30.00,South,180,2.6,3.1,90,0.00,,,0.00,WUHU216HW,2013-07-25 10:43:00,
2013-07-25 05:44:00,60.4,57.5,30.00,South,180,2.6,3.1,90,0.00,,,0.00,WUHU216HW,2013-07-25 10:44:00,
2013-07-25 05:46:00,60.4,57.5,30.00,South,180,2.9,3.1,90,0.00,,,0.00,WUHU216HW,2013-07-25 10:46:00,
2013-07-25 05:47:00,60.4,57.5,30.00,South,180,3.8,3.8,90,0.00,,,0.00,WUHU216HW,2013-07-25 10:47:00,
2013-07-25 05:49:00,60.2,57.5,30.00,South,180,2.9,3.8,90,0.00,,,0.00,WUHU216HW,2013-07-25 10:49:00,
2013-07-25 05:50:00,60.2,57.3,30.00,South,180,2.9,3.8,90,0.00,,,0.00,WUHU216HW,2013-07-25 10:50:00,
2013-07-25 05:52:00,60.2,57.3,30.00,South,180,2.9,3.8,90,0.00,,,0.00,WUHU216HW,2013-07-25 10:52:00,
2013-07-25 05:53:00,60.2,57.3,30.00,South,180,2.9,3.8,90,0.00,,,0.00,WUHU216HW,2013-07-25 10:53:00,
2013-07-25 05:55:00,60.4,57.5,30.00,SSW,203,2.4,3.8,90,0.00,,,0.00,WUHU216HW,2013-07-25 10:55:00,
2013-07-25 05:56:00,60.4,57.5,30.00,SW,225,2.9,3.8,90,0.00,,,0.00,WUHU216HW,2013-07-25 10:56:00,
2013-07-25 05:58:00,60.4,57.5,30.00,South,180,1.7,2.9,90,0.00,,,0.00,WUHU216HW,2013-07-25 10:58:00,
2013-07-25 05:59:00,60.4,57.5,30.01,South,180,1.7,2.9,90,0.00,,,0.00,WUHU216HW,2013-07-25 10:59:00,
2013-07-25 06:01:00,60.4,57.5,30.01,SSW,203,0.8,2.9,90,0.00,,,0.00,WUHU216HW,2013-07-25 11:01:00,
2013-07-25 06:02:00,60.4,57.2,30.01,South,180,0.0,2.9,89,0.00,,,0.00,WUHU216HW,2013-07-25 11:02:00,
2013-07-25 06:04:00,60.4,57.2,30.01,South,180,1.3,2.9,89,0.00,,,0.00,WUHU216HW,2013-07-25 11:04:00,
2013-07-25 06:05:00,60.4,57.2,30.01,South,180,1.3,2.9,89,0.00,,,0.00,WUHU216HW,2013-07-25 11:05:00,
2013-07-25 06:07:00,60.4,57.2,30.00,South,180,1.3,1.7,89,0.00,,,0.00,WUHU216HW,2013-07-25 11:07:00,
2013-07-25 06:08:00,60.4,57.2,30.01,South,180,1.3,1.7,89,0.00,,,0.00,WUHU216HW,2013-07-25 11:08:00,
2013-07-25 06:10:00,60.4,57.2,30.01,South,180,0.0,1.3,89,0.00,,,0.00,WUHU216HW,2013-07-25 11:10:00,
2013-07-25 06:11:00,60.4,57.2,30.01,South,180,0.0,1.3,89,0.00,,,0.00,WUHU216HW,2013-07-25 11:11:00,
2013-07-25 06:13:00,60.4,57.2,30.01,South,180,0.0,1.3,89,0.00,,,0.00,WUHU216HW,2013-07-25 11:13:00,
2013-07-25 06:14:00,60.4,57.2,30.01,South,180,0.0,1.3,89,0.00,,,0.00,WUHU216HW,2013-07-25 11:14:00,
2013-07-25 06:16:00,60.4,57.2,30.01,South,180,5.5,5.5,89,0.00,,,0.00,WUHU216HW,2013-07-25 11:16:00,
2013-07-25 06:17:00,60.6,57.4,30.00,South,180,2.6,5.5,89,0.00,,,0.00,WUHU216HW,2013-07-25 11:17:00,
2013-07-25 06:19:00,60.6,57.4,30.01,South,180,2.2,5.5,89,0.00,,,0.00,WUHU216HW,2013-07-25 11:19:00,
2013-07-25 06:20:00,60.6,57.4,30.01,South,180,2.2,5.5,89,0.00,,,0.00,WUHU216HW,2013-07-25 11:20:00,
2013-07-25 06:22:00,60.6,57.4,30.00,South,180,2.4,5.5,89,0.00,,,0.00,WUHU216HW,2013-07-25 11:22:00,
2013-07-25 06:23:00,60.6,57.4,30.01,South,180,2.4,5.5,89,0.00,,,0.00,WUHU216HW,2013-07-25 11:23:00,
2013-07-25 06:25:00,60.8,57.5,30.00,South,180,3.8,5.5,89,0.00,,,0.00,WUHU216HW,2013-07-25 11:25:00,
2013-07-25 06:26:00,60.8,57.5,30.01,SSW,203,0.8,3.8,89,0.00,,,0.00,WUHU216HW,2013-07-25 11:26:00,
2013-07-25 06:28:00,60.9,57.7,30.00,SSW,203,2.4,3.8,89,0.00,,,0.00,WUHU216HW,2013-07-25 11:28:00,
2013-07-25 06:29:00,60.9,57.7,30.00,SSW,203,2.4,3.8,89,0.00,,,0.00,WUHU216HW,2013-07-25 11:29:00,
2013-07-25 06:31:00,60.9,57.7,30.00,SSW,203,2.0,3.8,89,0.00,,,0.00,WUHU216HW,2013-07-25 11:31:00,
2013-07-25 06:32:00,60.9,57.4,30.01,South,180,4.2,4.2,88,0.00,,,0.00,WUHU216HW,2013-07-25 11:32:00,
2013-07-25 06:34:00,60.9,57.4,30.01,SSW,203,2.6,4.2,88,0.00,,,0.00,WUHU216HW,2013-07-25 11:34:00,
2013-07-25 06:35:00,60.9,57.4,30.01,SSW,203,2.6,4.2,88,0.00,,,0.00,WUHU216HW,2013-07-25 11:35:00,
2013-07-25 06:37:00,61.1,57.6,30.01,SSE,158,1.7,4.2,88,0.00,,,0.00,WUHU216HW,2013-07-25 11:37:00,
2013-07-25 06:38:00,61.1,57.6,30.01,SSE,158,1.7,4.2,88,0.00,,,0.00,WUHU216HW,2013-07-25 11:38:00,
2013-07-25 06:40:00,61.1,57.6,30.01,SW,225,1.1,4.2,88,0.00,,,0.00,WUHU216HW,2013-07-25 11:40:00,
2013-07-25 06:41:00,61.3,57.7,30.01,SW,225,4.2,4.2,88,0.00,,,0.00,WUHU216HW,2013-07-25 11:41:00,
2013-07-25 06:43:00,61.5,57.9,30.01,SSW,203,1.5,4.2,88,0.00,,,0.00,WUHU216HW,2013-07-25 11:43:00,
2013-07-25 06:44:00,61.5,57.9,30.01,SSW,203,1.5,4.2,88,0.00,,,0.00,WUHU216HW,2013-07-25 11:44:00,
2013-07-25 06:46:00,61.5,57.9,30.01,South,180,2.0,4.2,88,0.00,,,0.00,WUHU216HW,2013-07-25 11:46:00,
2013-07-25 06:47:00,61.7,58.1,30.01,WSW,248,4.0,4.2,88,0.00,,,0.00,WUHU216HW,2013-07-25 11:47:00,
2013-07-25 06:49:00,61.7,58.1,30.01,South,180,2.6,4.2,88,0.00,,,0.00,WUHU216HW,2013-07-25 11:49:00,
2013-07-25 06:50:00,61.7,58.1,30.01,South,180,2.6,4.2,88,0.00,,,0.00,WUHU216HW,2013-07-25 11:50:00,
2013-07-25 06:52:00,62.0,58.1,30.01,SSW,203,2.9,4.0,87,0.00,,,0.00,WUHU216HW,2013-07-25 11:52:00,
2013-07-25 06:53:00,62.0,58.1,30.01,SSW,203,2.9,4.0,87,0.00,,,0.00,WUHU216HW,2013-07-25 11:53:00,
2013-07-25 06:55:00,62.2,58.3,30.01,SSW,203,4.6,4.6,87,0.00,,,0.00,WUHU216HW,2013-07-25 11:55:00,
2013-07-25 06:56:00,62.2,58.3,30.01,SSE,158,2.0,4.6,87,0.00,,,0.00,WUHU216HW,2013-07-25 11:56:00,
2013-07-25 06:58:00,62.4,58.5,30.01,SSW,203,3.5,4.6,87,0.00,,,0.00,WUHU216HW,2013-07-25 11:58:00,
2013-07-25 06:59:00,62.4,58.5,30.01,SSW,203,3.5,4.6,87,0.00,,,0.00,WUHU216HW,2013-07-25 11:59:00,
2013-07-25 07:01:00,62.4,58.1,30.01,South,180,3.1,4.6,86,0.00,,,0.00,WUHU216HW,2013-07-25 12:01:00,
2013-07-25 07:02:00,62.7,58.5,30.01,SSW,203,2.4,4.6,86,0.00,,,0.00,WUHU216HW,2013-07-25 12:02:00,
2013-07-25 07:04:00,62.7,58.5,30.01,SSE,158,1.7,4.6,86,0.00,,,0.00,WUHU216HW,2013-07-25 12:04:00,
2013-07-25 07:05:00,62.7,58.5,30.01,SSE,158,1.7,3.5,86,0.00,,,0.00,WUHU216HW,2013-07-25 12:05:00,
2013-07-25 07:07:00,62.9,58.7,30.01,SSW,203,2.2,3.5,86,0.00,,,0.00,WUHU216HW,2013-07-25 12:07:00,
2013-07-25 07:08:00,62.9,58.7,30.01,SSW,203,2.2,3.5,86,0.00,,,0.00,WUHU216HW,2013-07-25 12:08:00,
2013-07-25 07:10:00,62.9,58.7,30.01,SSW,203,2.2,3.1,86,0.00,,,0.00,WUHU216HW,2013-07-25 12:10:00,
2013-07-25 07:11:00,62.9,58.7,30.01,SSW,203,2.2,2.4,86,0.00,,,0.00,WUHU216HW,2013-07-25 12:11:00,
2013-07-25 07:13:00,63.3,59.0,30.01,South,180,2.9,2.9,86,0.00,,,0.00,WUHU216HW,2013-07-25 12:13:00,
2013-07-25 07:14:00,63.3,59.0,30.01,South,180,2.9,2.9,86,0.00,,,0.00,WUHU216HW,2013-07-25 12:14:00,
2013-07-25 07:16:00,63.5,58.9,30.01,South,180,6.0,6.0,85,0.00,,,0.00,WUHU216HW,2013-07-25 12:16:00,
2013-07-25 07:17:00,63.5,58.9,30.01,SSW,203,3.1,6.0,85,0.00,,,0.00,WUHU216HW,2013-07-25 12:17:00,
2013-07-25 07:19:00,63.6,59.0,30.00,South,180,2.2,6.0,85,0.00,,,0.00,WUHU216HW,2013-07-25 12:19:00,
2013-07-25 07:20:00,63.6,59.0,30.00,South,180,2.2,6.0,85,0.00,,,0.00,WUHU216HW,2013-07-25 12:20:00,
2013-07-25 07:22:00,64.0,59.4,30.00,SSW,203,4.0,6.0,85,0.00,,,0.00,WUHU216HW,2013-07-25 12:22:00,
2013-07-25 07:23:00,64.0,59.4,30.00,SSW,203,4.0,6.0,85,0.00,,,0.00,WUHU216HW,2013-07-25 12:23:00,
2013-07-25 07:25:00,64.0,59.4,30.01,South,180,2.0,6.0,85,0.00,,,0.00,WUHU216HW,2013-07-25 12:25:00,
2013-07-25 07:26:00,64.2,59.2,30.01,South,180,3.1,4.0,84,0.00,,,0.00,WUHU216HW,2013-07-25 12:26:00,
2013-07-25 07:28:00,64.2,59.2,30.01,SW,225,2.2,4.0,84,0.00,,,0.00,WUHU216HW,2013-07-25 12:28:00,
2013-07-25 07:29:00,64.2,59.2,30.01,SW,225,2.2,4.0,84,0.00,,,0.00,WUHU216HW,2013-07-25 12:29:00,
2013-07-25 07:31:00,64.2,59.2,30.01,SSE,158,0.0,4.0,84,0.00,,,0.00,WUHU216HW,2013-07-25 12:31:00,
2013-07-25 07:32:00,64.4,59.1,30.01,South,180,3.1,4.0,83,0.00,,,0.00,WUHU216HW,2013-07-25 12:32:00,
2013-07-25 07:34:00,64.4,59.1,30.01,SSW,203,4.0,4.0,83,0.00,,,0.00,WUHU216HW,2013-07-25 12:34:00,
2013-07-25 07:35:00,64.4,59.1,30.01,SSW,203,4.0,4.0,83,0.00,,,0.00,WUHU216HW,2013-07-25 12:35:00,
2013-07-25 07:37:00,64.5,59.2,30.00,SSE,158,4.0,4.0,83,0.00,,,0.00,WUHU216HW,2013-07-25 12:37:00,
2013-07-25 07:38:00,64.5,59.2,30.01,SSE,158,4.0,4.0,83,0.00,,,0.00,WUHU216HW,2013-07-25 12:38:00,
2013-07-25 07:40:00,64.7,59.4,30.00,South,180,1.5,4.0,83,0.00,,,0.00,WUHU216HW,2013-07-25 12:40:00,
2013-07-25 07:41:00,64.9,59.6,30.01,South,180,1.7,4.0,83,0.00,,,0.00,WUHU216HW,2013-07-25 12:41:00,
2013-07-25 07:43:00,65.1,59.8,30.01,WSW,248,2.0,4.0,83,0.00,,,0.00,WUHU216HW,2013-07-25 12:43:00,
2013-07-25 07:44:00,65.1,59.8,30.01,WSW,248,2.0,4.0,83,0.00,,,0.00,WUHU216HW,2013-07-25 12:44:00,
2013-07-25 07:46:00,65.4,59.8,30.01,SSW,203,2.9,4.0,82,0.00,,,0.00,WUHU216HW,2013-07-25 12:46:00,
2013-07-25 07:47:00,65.8,60.1,30.01,SW,225,3.5,4.0,82,0.00,,,0.00,WUHU216HW,2013-07-25 12:47:00,
2013-07-25 07:49:00,66.0,60.3,30.01,South,180,3.1,3.5,82,0.00,,,0.00,WUHU216HW,2013-07-25 12:49:00,
2013-07-25 07:50:00,66.0,60.3,30.01,South,180,3.1,3.5,82,0.00,,,0.00,WUHU216HW,2013-07-25 12:50:00,
2013-07-25 07:52:00,66.3,60.7,30.01,SSW,203,3.5,3.5,82,0.00,,,0.00,WUHU216HW,2013-07-25 12:52:00,
2013-07-25 07:53:00,66.3,60.7,30.01,SSW,203,3.5,3.5,82,0.00,,,0.00,WUHU216HW,2013-07-25 12:53:00,
2013-07-25 07:55:00,66.5,60.5,30.01,SSW,203,4.0,4.0,81,0.00,,,0.00,WUHU216HW,2013-07-25 12:55:00,
2013-07-25 07:56:00,66.7,60.4,30.01,SW,225,1.7,4.0,80,0.00,,,0.00,WUHU216HW,2013-07-25 12:56:00,
2013-07-25 07:58:00,66.9,60.6,30.02,South,180,1.1,4.0,80,0.00,,,0.00,WUHU216HW,2013-07-25 12:58:00,
2013-07-25 07:59:00,66.9,60.6,30.02,South,180,1.1,4.0,80,0.00,,,0.00,WUHU216HW,2013-07-25 12:59:00,
2013-07-25 08:01:00,67.2,60.9,30.02,SW,225,0.0,4.0,80,0.00,,,0.00,WUHU216HW,2013-07-25 13:01:00,
2013-07-25 08:02:00,67.2,60.6,30.02,WSW,248,3.3,4.0,79,0.00,,,0.00,WUHU216HW,2013-07-25 13:02:00,
2013-07-25 08:04:00,67.6,60.5,30.01,SSW,203,3.5,4.0,78,0.00,,,0.00,WUHU216HW,2013-07-25 13:04:00,
2013-07-25 08:05:00,67.6,60.5,30.01,SSW,203,3.5,3.5,78,0.00,,,0.00,WUHU216HW,2013-07-25 13:05:00,
2013-07-25 08:07:00,67.6,60.5,30.01,WSW,248,2.2,3.5,78,0.00,,,0.00,WUHU216HW,2013-07-25 13:07:00,
2013-07-25 08:08:00,67.6,60.5,30.01,WSW,248,2.2,3.5,78,0.00,,,0.00,WUHU216HW,2013-07-25 13:08:00,
2013-07-25 08:10:00,67.8,60.7,30.01,SW,225,1.7,3.5,78,0.00,,,0.00,WUHU216HW,2013-07-25 13:10:00,
2013-07-25 08:11:00,67.8,60.7,30.01,SSW,203,3.3,3.5,78,0.00,,,0.00,WUHU216HW,2013-07-25 13:11:00,
2013-07-25 08:13:00,67.8,60.3,30.01,South,180,2.9,3.5,77,0.00,,,0.00,WUHU216HW,2013-07-25 13:13:00,
2013-07-25 08:14:00,67.8,60.3,30.01,South,180,2.9,3.5,77,0.00,,,0.00,WUHU216HW,2013-07-25 13:14:00,
2013-07-25 08:16:00,67.8,60.3,30.01,SSW,203,3.8,3.8,77,0.00,,,0.00,WUHU216HW,2013-07-25 13:16:00,
2013-07-25 08:17:00,68.1,60.7,30.01,South,180,2.4,3.8,77,0.00,,,0.00,WUHU216HW,2013-07-25 13:17:00,
2013-07-25 08:19:00,68.1,60.7,30.01,WSW,248,4.2,4.2,77,0.00,,,0.00,WUHU216HW,2013-07-25 13:19:00,
2013-07-25 08:20:00,68.1,60.7,30.01,WSW,248,4.2,4.2,77,0.00,,,0.00,WUHU216HW,2013-07-25 13:20:00,
2013-07-25 08:22:00,68.7,60.8,30.01,SW,225,3.1,4.2,76,0.00,,,0.00,WUHU216HW,2013-07-25 13:22:00,
2013-07-25 08:23:00,68.7,60.8,30.01,SW,225,3.1,4.2,76,0.00,,,0.00,WUHU216HW,2013-07-25 13:23:00,
2013-07-25 08:25:00,69.2,61.7,30.01,SSW,203,3.5,4.2,77,0.00,,,0.00,WUHU216HW,2013-07-25 13:25:00,
2013-07-25 08:26:00,69.9,62.3,30.01,South,180,4.2,4.2,77,0.00,,,0.00,WUHU216HW,2013-07-25 13:26:00,
2013-07-25 08:28:00,70.7,62.3,30.01,SSW,203,1.3,4.2,75,0.00,,,0.00,WUHU216HW,2013-07-25 13:28:00,
2013-07-25 08:29:00,70.7,62.3,30.01,SSW,203,1.3,4.2,75,0.00,,,0.00,WUHU216HW,2013-07-25 13:29:00,
2013-07-25 08:31:00,71.4,63.0,30.01,West,270,4.4,4.4,75,0.00,,,0.00,WUHU216HW,2013-07-25 13:31:00,
2013-07-25 08:32:00,71.7,62.6,30.02,SSW,203,1.5,4.4,73,0.00,,,0.00,WUHU216HW,2013-07-25 13:32:00,
2013-07-25 08:34:00,71.7,62.2,30.02,WSW,248,0.0,4.4,72,0.00,,,0.00,WUHU216HW,2013-07-25 13:34:00,
2013-07-25 08:35:00,71.7,62.2,30.01,WSW,248,0.0,4.4,72,0.00,,,0.00,WUHU216HW,2013-07-25 13:35:00,
2013-07-25 08:37:00,71.7,62.2,30.01,SSW,203,0.0,4.4,72,0.00,,,0.00,WUHU216HW,2013-07-25 13:37:00,
2013-07-25 08:38:00,71.7,62.2,30.01,SSW,203,0.0,4.4,72,0.00,,,0.00,WUHU216HW,2013-07-25 13:38:00,
2013-07-25 08:40:00,71.7,62.2,30.01,SSW,203,1.5,4.4,72,0.00,,,0.00,WUHU216HW,2013-07-25 13:40:00,
2013-07-25 08:41:00,71.4,61.5,30.01,SW,225,2.4,2.4,71,0.00,,,0.00,WUHU216HW,2013-07-25 13:41:00,
2013-07-25 08:43:00,71.4,61.5,30.01,South,180,2.9,2.9,71,0.00,,,0.00,WUHU216HW,2013-07-25 13:43:00,
2013-07-25 08:44:00,71.4,61.5,30.01,South,180,2.9,2.9,71,0.00,,,0.00,WUHU216HW,2013-07-25 13:44:00,
2013-07-25 08:46:00,71.4,61.5,30.02,South,180,2.4,2.9,71,0.00,,,0.00,WUHU216HW,2013-07-25 13:46:00,
2013-07-25 08:47:00,71.4,61.5,30.02,SSW,203,2.9,2.9,71,0.00,,,0.00,WUHU216HW,2013-07-25 13:47:00,
2013-07-25 08:49:00,71.4,61.5,30.02,SSW,203,2.0,2.9,71,0.00,,,0.00,WUHU216HW,2013-07-25 13:49:00,
2013-07-25 08:50:00,71.4,61.5,30.02,SSW,203,2.0,2.9,71,0.00,,,0.00,WUHU216HW,2013-07-25 13:50:00,
2013-07-25 08:52:00,71.4,61.5,30.02,SSW,203,3.5,3.5,71,0.00,,,0.00,WUHU216HW,2013-07-25 13:52:00,
2013-07-25 08:53:00,71.4,61.5,30.02,SSW,203,3.5,3.5,71,0.00,,,0.00,WUHU216HW,2013-07-25 13:53:00,
2013-07-25 08:55:00,71.4,61.5,30.02,SSE,158,2.4,3.5,71,0.00,,,0.00,WUHU216HW,2013-07-25 13:55:00,
2013-07-25 08:56:00,71.4,61.5,30.02,SW,225,3.5,3.5,71,0.00,,,0.00,WUHU216HW,2013-07-25 13:56:00,
2013-07-25 08:58:00,71.9,62.4,30.03,SW,225,10.5,10.5,72,0.00,,,0.00,WUHU216HW,2013-07-25 13:58:00,
2013-07-25 08:59:00,71.9,62.4,30.02,SW,225,10.5,10.5,72,0.00,,,0.00,WUHU216HW,2013-07-25 13:59:00,
2013-07-25 09:01:00,72.5,62.9,30.03,SW,225,6.2,10.5,72,0.00,,,0.00,WUHU216HW,2013-07-25 14:01:00,
2013-07-25 09:02:00,73.4,63.5,30.02,SSW,203,4.2,10.5,71,0.00,,,0.00,WUHU216HW,2013-07-25 14:02:00,
2013-07-25 09:04:00,74.4,64.4,30.02,SSW,203,1.5,10.5,71,0.00,,,0.00,WUHU216HW,2013-07-25 14:04:00,
2013-07-25 09:05:00,74.4,64.4,30.02,SSW,203,1.5,10.5,71,0.00,,,0.00,WUHU216HW,2013-07-25 14:05:00,
2013-07-25 09:07:00,75.3,64.9,30.02,South,180,2.9,10.5,70,0.00,,,0.00,WUHU216HW,2013-07-25 14:07:00,
2013-07-25 09:08:00,75.3,64.9,30.02,South,180,2.9,10.5,70,0.00,,,0.00,WUHU216HW,2013-07-25 14:08:00,
2013-07-25 09:10:00,76.2,64.9,30.03,SSW,203,2.4,6.2,68,0.00,,,0.00,WUHU216HW,2013-07-25 14:10:00,
2013-07-25 09:11:00,77.0,64.7,30.02,South,180,2.6,4.2,66,0.00,,,0.00,WUHU216HW,2013-07-25 14:11:00,
2013-07-25 09:13:00,77.7,65.4,30.02,WSW,248,2.9,2.9,66,0.00,,,0.00,WUHU216HW,2013-07-25 14:13:00,
2013-07-25 09:14:00,77.7,65.4,30.02,WSW,248,2.9,2.9,66,0.00,,,0.00,WUHU216HW,2013-07-25 14:14:00,
2013-07-25 09:16:00,78.6,65.8,30.02,SW,225,4.6,4.6,65,0.00,,,0.00,WUHU216HW,2013-07-25 14:16:00,
2013-07-25 09:17:00,78.9,65.7,30.02,SSE,158,3.3,4.6,64,0.00,,,0.00,WUHU216HW,2013-07-25 14:17:00,
2013-07-25 09:19:00,79.5,65.3,30.02,SSW,203,5.1,5.1,62,0.00,,,0.00,WUHU216HW,2013-07-25 14:19:00,
2013-07-25 09:20:00,79.5,65.3,30.02,SSW,203,5.1,5.1,62,0.00,,,0.00,WUHU216HW,2013-07-25 14:20:00,
2013-07-25 09:22:00,79.8,65.7,30.02,SW,225,4.6,5.1,62,0.00,,,0.00,WUHU216HW,2013-07-25 14:22:00,
2013-07-25 09:23:00,79.8,65.7,30.02,South,180,0.0,5.1,62,0.00,,,0.00,WUHU216HW,2013-07-25 14:23:00,
2013-07-25 09:25:00,80.2,65.5,30.02,South,180,0.0,5.1,61,0.00,,,0.00,WUHU216HW,2013-07-25 14:25:00,
2013-07-25 09:26:00,80.6,65.4,30.02,SSW,203,5.3,5.3,60,0.00,,,0.00,WUHU216HW,2013-07-25 14:26:00,
2013-07-25 09:28:00,80.7,65.1,30.02,West,270,2.9,5.3,59,0.00,,,0.00,WUHU216HW,2013-07-25 14:28:00,
2013-07-25 09:29:00,80.7,65.1,30.02,West,270,2.9,5.3,59,0.00,,,0.00,WUHU216HW,2013-07-25 14:29:00,
2013-07-25 09:31:00,80.9,65.8,30.02,SW,225,5.3,5.3,60,0.00,,,0.00,WUHU216HW,2013-07-25 14:31:00,
2013-07-25 09:32:00,81.3,65.6,30.02,WSW,248,2.9,5.3,59,0.00,,,0.00,WUHU216HW,2013-07-25 14:32:00,
2013-07-25 09:34:00,82.0,66.2,30.02,SSW,203,0.0,5.3,59,0.00,,,0.00,WUHU216HW,2013-07-25 14:34:00,
2013-07-25 09:35:00,82.0,66.2,30.02,SSW,203,0.0,5.3,59,0.00,,,0.00,WUHU216HW,2013-07-25 14:35:00,
2013-07-25 09:37:00,82.5,66.2,30.02,SW,225,4.6,5.3,58,0.00,,,0.00,WUHU216HW,2013-07-25 14:37:00,
2013-07-25 09:38:00,82.5,66.2,30.02,SW,225,4.6,5.3,58,0.00,,,0.00,WUHU216HW,2013-07-25 14:38:00,
2013-07-25 09:40:00,82.9,66.0,30.02,SSW,203,3.5,5.3,57,0.00,,,0.00,WUHU216HW,2013-07-25 14:40:00,
2013-07-25 09:41:00,83.1,65.7,30.02,SSE,158,2.4,4.6,56,0.00,,,0.00,WUHU216HW,2013-07-25 14:41:00,
2013-07-25 09:43:00,83.1,65.7,30.02,SSW,203,4.6,4.6,56,0.00,,,0.00,WUHU216HW,2013-07-25 14:43:00,
2013-07-25 09:44:00,83.1,65.7,30.02,SSW,203,4.6,4.6,56,0.00,,,0.00,WUHU216HW,2013-07-25 14:44:00,
2013-07-25 09:46:00,83.1,65.2,30.02,SSW,203,3.3,4.6,55,0.00,,,0.00,WUHU216HW,2013-07-25 14:46:00,
2013-07-25 09:47:00,83.1,65.2,30.02,SSW,203,2.9,4.6,55,0.00,,,0.00,WUHU216HW,2013-07-25 14:47:00,
2013-07-25 09:49:00,83.3,65.3,30.02,South,180,2.6,4.6,55,0.00,,,0.00,WUHU216HW,2013-07-25 14:49:00,
2013-07-25 09:50:00,83.3,65.3,30.02,South,180,2.6,4.6,55,0.00,,,0.00,WUHU216HW,2013-07-25 14:50:00,
2013-07-25 09:52:00,83.3,65.3,30.02,WSW,248,2.0,4.6,55,0.00,,,0.00,WUHU216HW,2013-07-25 14:52:00,
2013-07-25 09:53:00,83.3,65.5,30.02,SSE,158,3.3,4.6,55,0.00,,,0.00,WUHU216HW,2013-07-25 14:53:00,
2013-07-25 09:55:00,83.4,65.5,30.02,SSE,158,3.3,3.3,55,0.00,,,0.00,WUHU216HW,2013-07-25 14:55:00,
2013-07-25 09:56:00,83.4,65.5,30.02,South,180,3.5,3.5,55,0.00,,,0.00,WUHU216HW,2013-07-25 14:56:00,
2013-07-25 09:58:00,83.6,65.7,30.02,SSE,158,2.4,3.5,55,0.00,,,0.00,WUHU216HW,2013-07-25 14:58:00,
2013-07-25 09:59:00,83.6,65.7,30.02,SSE,158,2.4,3.5,55,0.00,,,0.00,WUHU216HW,2013-07-25 14:59:00,
2013-07-25 10:01:00,83.8,65.4,30.02,SW,225,5.5,5.5,54,0.00,,,0.00,WUHU216HW,2013-07-25 15:01:00,
2013-07-25 10:02:00,83.8,65.4,30.02,West,270,0.0,5.5,54,0.00,,,0.00,WUHU216HW,2013-07-25 15:02:00,
2013-07-25 10:04:00,83.8,65.4,30.02,SSW,203,4.9,5.5,54,0.00,,,0.00,WUHU216HW,2013-07-25 15:04:00,
2013-07-25 10:05:00,83.8,65.4,30.01,SSW,203,4.9,5.5,54,0.00,,,0.00,WUHU216HW,2013-07-25 15:05:00,
2013-07-25 10:07:00,84.0,65.5,30.01,West,270,1.3,5.5,54,0.00,,,0.00,WUHU216HW,2013-07-25 15:07:00,
2013-07-25 10:08:00,84.2,65.7,30.01,South,180,5.8,5.8,54,0.00,,,0.00,WUHU216HW,2013-07-25 15:08:00,
2013-07-25 10:10:00,84.2,65.7,30.01,South,180,5.8,5.8,54,0.00,,,0.00,WUHU216HW,2013-07-25 15:10:00,
2013-07-25 10:11:00,84.3,65.9,30.02,SSE,158,3.1,5.8,54,0.00,,,0.00,WUHU216HW,2013-07-25 15:11:00,
2013-07-25 10:13:00,84.5,66.0,30.01,SSW,203,3.8,5.8,54,0.00,,,0.00,WUHU216HW,2013-07-25 15:13:00,
2013-07-25 10:14:00,84.5,66.0,30.02,SSW,203,3.8,5.8,54,0.00,,,0.00,WUHU216HW,2013-07-25 15:14:00,
2013-07-25 10:16:00,84.7,66.2,30.01,SSW,203,7.1,7.1,54,0.00,,,0.00,WUHU216HW,2013-07-25 15:16:00,
2013-07-25 10:17:00,84.7,65.7,30.02,SW,225,1.7,7.1,53,0.00,,,0.00,WUHU216HW,2013-07-25 15:17:00,
2013-07-25 10:19:00,84.9,65.8,30.02,SSW,203,3.5,7.1,53,0.00,,,0.00,WUHU216HW,2013-07-25 15:19:00,
2013-07-25 10:20:00,84.9,65.8,30.01,SSW,203,3.5,7.1,53,0.00,,,0.00,WUHU216HW,2013-07-25 15:20:00,
2013-07-25 10:22:00,84.9,65.8,30.01,SW,225,4.0,7.1,53,0.00,,,0.00,WUHU216HW,2013-07-25 15:22:00,
2013-07-25 10:23:00,85.2,65.8,30.01,SSW,203,3.8,7.1,53,0.00,,,0.00,WUHU216HW,2013-07-25 15:23:00,
2013-07-25 10:25:00,85.2,66.7,30.02,SSW,203,3.8,7.1,54,0.00,,,0.00,WUHU216HW,2013-07-25 15:25:00,
2013-07-25 10:26:00,85.8,66.7,30.01,South,180,8.5,8.5,53,0.00,,,0.00,WUHU216HW,2013-07-25 15:26:00,
2013-07-25 10:28:00,85.8,66.1,30.01,SW,225,8.0,8.5,52,0.00,,,0.00,WUHU216HW,2013-07-25 15:28:00,
2013-07-25 10:29:00,85.8,66.1,30.01,SW,225,8.0,8.5,52,0.00,,,0.00,WUHU216HW,2013-07-25 15:29:00,
2013-07-25 10:31:00,86.1,65.9,30.01,SSW,203,2.4,8.5,51,0.00,,,0.00,WUHU216HW,2013-07-25 15:31:00,
2013-07-25 10:32:00,86.1,65.9,30.01,SSW,203,6.9,8.5,51,0.00,,,0.00,WUHU216HW,2013-07-25 15:32:00,
2013-07-25 10:33:00,86.1,65.9,30.01,SSW,203,6.9,8.5,51,0.00,,,0.00,WUHU216HW,2013-07-25 15:33:00,
2013-07-25 10:35:00,86.1,65.9,30.01,SW,225,4.4,8.5,51,0.00,,,0.00,WUHU216HW,2013-07-25 15:35:00,
2013-07-25 10:37:00,85.8,65.6,30.01,SW,225,6.4,8.0,51,0.00,,,0.00,WUHU216HW,2013-07-25 15:37:00,
2013-07-25 10:38:00,85.8,65.6,30.01,SW,225,3.8,8.0,51,0.00,,,0.00,WUHU216HW,2013-07-25 15:38:00,
2013-07-25 10:40:00,85.8,65.6,30.01,SW,225,3.8,6.9,51,0.00,,,0.00,WUHU216HW,2013-07-25 15:40:00,
2013-07-25 10:41:00,86.0,66.3,30.01,South,180,2.0,6.9,52,0.00,,,0.00,WUHU216HW,2013-07-25 15:41:00,
2013-07-25 10:43:00,86.1,66.5,30.01,SSE,158,1.1,6.4,52,0.00,,,0.00,WUHU216HW,2013-07-25 15:43:00,
2013-07-25 10:44:00,86.1,66.5,30.01,SSE,158,1.1,6.4,52,0.00,,,0.00,WUHU216HW,2013-07-25 15:44:00,
2013-07-25 10:45:00,86.3,66.1,30.02,South,180,2.6,6.4,51,0.00,,,0.00,WUHU216HW,2013-07-25 15:45:00,
2013-07-25 10:47:00,86.5,66.3,30.01,SSW,203,5.5,5.5,51,0.00,,,0.00,WUHU216HW,2013-07-25 15:47:00,
2013-07-25 10:48:00,86.5,66.3,30.02,SSW,203,5.5,5.5,51,0.00,,,0.00,WUHU216HW,2013-07-25 15:48:00,
2013-07-25 10:50:00,86.5,66.3,30.02,SSE,158,3.1,5.5,51,0.00,,,0.00,WUHU216HW,2013-07-25 15:50:00,
2013-07-25 10:51:00,86.5,65.7,30.02,South,180,2.2,5.5,50,0.00,,,0.00,WUHU216HW,2013-07-25 15:51:00,
2013-07-25 10:53:00,86.5,65.7,30.01,SW,225,3.8,5.5,50,0.00,,,0.00,WUHU216HW,2013-07-25 15:53:00,
2013-07-25 10:54:00,86.5,65.7,30.01,SW,225,3.8,5.5,50,0.00,,,0.00,WUHU216HW,2013-07-25 15:54:00,
2013-07-25 10:56:00,86.5,66.3,30.01,South,180,5.3,5.5,51,0.00,,,0.00,WUHU216HW,2013-07-25 15:56:00,
2013-07-25 10:57:00,86.5,66.3,30.01,South,180,5.3,5.5,51,0.00,,,0.00,WUHU216HW,2013-07-25 15:57:00,
2013-07-25 10:59:00,86.9,67.1,30.01,SSE,158,3.1,5.3,52,0.00,,,0.00,WUHU216HW,2013-07-25 15:59:00,
2013-07-25 11:00:00,87.0,66.7,30.01,South,180,2.4,5.3,51,0.00,,,0.00,WUHU216HW,2013-07-25 16:00:00,
2013-07-25 11:02:00,87.4,66.5,30.02,SSW,203,4.9,5.3,50,0.00,,,0.00,WUHU216HW,2013-07-25 16:02:00,
2013-07-25 11:03:00,87.4,66.5,30.02,SSW,203,4.9,5.3,50,0.00,,,0.00,WUHU216HW,2013-07-25 16:03:00,
2013-07-25 11:05:00,87.4,67.1,30.01,SW,225,2.6,5.3,51,0.00,,,0.00,WUHU216HW,2013-07-25 16:05:00,
2013-07-25 11:06:00,87.4,66.5,30.01,SSE,158,3.1,5.3,50,0.00,,,0.00,WUHU216HW,2013-07-25 16:06:00,
2013-07-25 11:08:00,87.4,66.5,30.01,SSE,158,3.1,4.9,50,0.00,,,0.00,WUHU216HW,2013-07-25 16:08:00,
2013-07-25 11:09:00,87.4,66.5,30.01,South,180,3.5,4.9,50,0.00,,,0.00,WUHU216HW,2013-07-25 16:09:00,
2013-07-25 11:11:00,87.6,66.1,30.02,SW,225,3.1,4.9,49,0.00,,,0.00,WUHU216HW,2013-07-25 16:11:00,
2013-07-25 11:12:00,87.6,66.1,30.01,SW,225,3.1,4.9,49,0.00,,,0.00,WUHU216HW,2013-07-25 16:12:00,
2013-07-25 11:14:00,87.6,66.7,30.01,SSW,203,4.6,4.6,50,0.00,,,0.00,WUHU216HW,2013-07-25 16:14:00,
2013-07-25 11:15:00,87.4,65.9,30.01,SW,225,0.8,4.6,49,0.00,,,0.00,WUHU216HW,2013-07-25 16:15:00,
2013-07-25 11:17:00,87.6,66.1,30.01,SW,225,5.8,5.8,49,0.00,,,0.00,WUHU216HW,2013-07-25 16:17:00,
2013-07-25 11:18:00,87.6,66.1,30.01,SW,225,5.8,5.8,49,0.00,,,0.00,WUHU216HW,2013-07-25 16:18:00,
2013-07-25 11:20:00,87.9,66.4,30.01,South,180,4.4,5.8,49,0.00,,,0.00,WUHU216HW,2013-07-25 16:20:00,
2013-07-25 11:21:00,87.9,67.0,30.01,South,180,1.3,5.8,50,0.00,,,0.00,WUHU216HW,2013-07-25 16:21:00,
2013-07-25 11:23:00,87.9,66.5,30.01,WNW,293,3.1,5.8,49,0.00,,,0.00,WUHU216HW,2013-07-25 16:23:00,
2013-07-25 11:24:00,88.1,66.5,30.01,WNW,293,3.1,5.8,49,0.00,,,0.00,WUHU216HW,2013-07-25 16:24:00,
2013-07-25 11:26:00,88.3,66.7,30.01,SW,225,2.9,5.8,49,0.00,,,0.00,WUHU216HW,2013-07-25 16:26:00,
2013-07-25 11:27:00,88.3,66.7,30.01,SW,225,2.9,5.8,49,0.00,,,0.00,WUHU216HW,2013-07-25 16:27:00,
2013-07-25 11:29:00,88.3,67.4,30.01,NNE,23,3.1,4.4,50,0.00,,,0.00,WUHU216HW,2013-07-25 16:29:00,
2013-07-25 11:30:00,88.3,66.7,30.01,SW,225,6.0,6.0,49,0.00,,,0.00,WUHU216HW,2013-07-25 16:30:00,
2013-07-25 11:32:00,88.7,67.0,30.01,SE,135,3.5,6.0,49,0.00,,,0.00,WUHU216HW,2013-07-25 16:32:00,
2013-07-25 11:38:00,89.0,66.1,30.01,SSE,158,2.2,6.0,47,0.00,,,0.00,WUHU216HW,2013-07-25 16:38:00,
2013-07-25 11:43:00,88.8,65.9,30.01,SSE,158,3.8,4.2,47,0.00,,,0.00,WUHU216HW,2013-07-25 16:43:00,
2013-07-25 11:48:00,89.2,66.2,30.01,ESE,113,0.0,3.8,47,0.00,,,0.00,WUHU216HW,2013-07-25 16:48:00,
2013-07-25 11:53:00,90.6,67.5,30.01,SSW,203,2.4,8.5,47,0.00,,,0.00,WUHU216HW,2013-07-25 16:53:00,
2013-07-25 11:58:00,89.7,65.4,30.01,South,180,2.9,8.5,45,0.00,,,0.00,WUHU216HW,2013-07-25 16:58:00,
2013-07-25 12:03:00,87.0,64.3,30.01,SSW,203,2.4,6.4,47,0.00,,,0.00,WUHU216HW,2013-07-25 17:03:00,
2013-07-25 12:08:00,88.8,65.8,30.01,SE,135,1.3,3.1,48,0.00,,,0.00,WUHU216HW,2013-07-25 17:08:00,
2013-07-25 12:13:00,90.1,66.4,30.01,SSE,158,2.4,5.1,46,0.00,,,0.00,WUHU216HW,2013-07-25 17:13:00,
2013-07-25 12:18:00,90.3,66.5,30.01,SSE,158,3.1,5.5,46,0.00,,,0.00,WUHU216HW,2013-07-25 17:18:00,
2013-07-25 12:23:00,90.5,66.2,30.00,WSW,248,0.0,5.5,46,0.00,,,0.00,WUHU216HW,2013-07-25 17:23:00,
2013-07-25 12:28:00,91.2,66.1,30.00,WNW,293,4.4,4.4,44,0.00,,,0.00,WUHU216HW,2013-07-25 17:28:00,
2013-07-25 12:34:00,89.2,64.9,30.00,South,180,3.3,4.4,45,0.00,,,0.00,WUHU216HW,2013-07-25 17:34:00,
2013-07-25 12:39:00,88.8,65.9,30.00,SW,225,5.3,5.3,47,0.00,,,0.00,WUHU216HW,2013-07-25 17:39:00,
2013-07-25 12:44:00,89.7,66.7,30.00,SW,225,3.5,5.3,47,0.00,,,0.00,WUHU216HW,2013-07-25 17:44:00,
2013-07-25 12:49:00,89.4,65.7,30.00,South,180,2.9,3.5,46,0.00,,,0.00,WUHU216HW,2013-07-25 17:49:00,
2013-07-25 12:54:00,88.7,65.1,30.00,SSW,203,2.0,3.5,46,0.00,,,0.00,WUHU216HW,2013-07-25 17:54:00,
2013-07-25 12:59:00,88.3,65.4,30.00,South,180,2.2,5.3,47,0.00,,,0.00,WUHU216HW,2013-07-25 17:59:00,
2013-07-25 13:04:00,87.8,65.6,30.00,SW,225,2.6,5.8,48,0.00,,,0.00,WUHU216HW,2013-07-25 18:04:00,
2013-07-25 13:09:00,88.3,66.1,30.00,South,180,4.4,5.8,48,0.00,,,0.00,WUHU216HW,2013-07-25 18:09:00,
2013-07-25 13:14:00,87.9,65.1,29.99,South,180,0.8,4.4,47,0.00,,,0.00,WUHU216HW,2013-07-25 18:14:00,
2013-07-25 13:19:00,87.2,64.5,29.99,South,180,0.0,4.4,47,0.00,,,0.00,WUHU216HW,2013-07-25 18:19:00,
2013-07-25 13:24:00,87.6,64.8,29.99,SE,135,0.0,4.9,47,0.00,,,0.00,WUHU216HW,2013-07-25 18:24:00,
2013-07-25 13:29:00,87.2,64.5,29.99,SSE,158,1.7,4.9,47,0.00,,,0.00,WUHU216HW,2013-07-25 18:29:00,
2013-07-25 13:34:00,86.7,65.3,29.99,South,180,3.8,3.8,49,0.00,,,0.00,WUHU216HW,2013-07-25 18:34:00,
2013-07-25 13:39:00,87.6,64.8,29.99,SSW,203,2.4,4.2,47,0.00,,,0.00,WUHU216HW,2013-07-25 18:39:00,
2013-07-25 13:44:00,87.9,65.1,29.99,West,270,2.2,4.2,47,0.00,,,0.00,WUHU216HW,2013-07-25 18:44:00,
2013-07-25 13:49:00,87.0,64.3,29.98,SW,225,4.4,4.4,47,0.00,,,0.00,WUHU216HW,2013-07-25 18:49:00,
2013-07-25 13:54:00,86.7,64.6,29.98,SW,225,8.5,8.5,48,0.00,,,0.00,WUHU216HW,2013-07-25 18:54:00,
2013-07-25 13:59:00,87.0,65.6,29.98,SW,225,4.6,8.5,49,0.00,,,0.00,WUHU216HW,2013-07-25 18:59:00,
2013-07-25 14:04:00,88.8,67.2,29.98,SSW,203,3.1,4.6,49,0.00,,,0.00,WUHU216HW,2013-07-25 19:04:00,
2013-07-25 14:09:00,89.4,65.7,29.98,South,180,4.4,4.4,46,0.00,,,0.00,WUHU216HW,2013-07-25 19:09:00,
2013-07-25 14:14:00,88.7,65.8,29.98,SSE,158,5.1,5.1,47,0.00,,,0.00,WUHU216HW,2013-07-25 19:14:00,
2013-07-25 14:19:00,86.9,64.8,29.98,South,180,3.8,5.1,48,0.00,,,0.00,WUHU216HW,2013-07-25 19:19:00,
2013-07-25 14:24:00,86.1,65.4,29.98,SE,135,2.2,4.6,50,0.00,,,0.00,WUHU216HW,2013-07-25 19:24:00,
2013-07-25 14:29:00,86.5,66.3,29.98,West,270,1.3,3.8,51,0.00,,,0.00,WUHU216HW,2013-07-25 19:29:00,
2013-07-25 14:34:00,87.6,66.1,29.97,SSW,203,9.3,9.3,49,0.00,,,0.00,WUHU216HW,2013-07-25 19:34:00,
2013-07-25 14:39:00,88.3,66.7,29.96,East,90,2.9,9.3,49,0.00,,,0.00,WUHU216HW,2013-07-25 19:39:00,
2013-07-25 14:44:00,88.1,65.9,29.96,South,180,2.4,9.3,48,0.00,,,0.00,WUHU216HW,2013-07-25 19:44:00,
2013-07-25 14:49:00,86.7,65.3,29.97,ESE,113,2.6,6.9,49,0.00,,,0.00,WUHU216HW,2013-07-25 19:49:00,
2013-07-25 14:55:00,86.3,64.9,29.97,SSE,158,3.5,6.9,49,0.00,,,0.00,WUHU216HW,2013-07-25 19:55:00,
2013-07-25 15:00:00,85.8,64.5,29.96,SSW,203,7.6,7.6,49,0.00,,,0.00,WUHU216HW,2013-07-25 20:00:00,
2013-07-25 15:05:00,86.1,65.9,29.96,SSE,158,4.2,9.6,51,0.00,,,0.00,WUHU216HW,2013-07-25 20:05:00,
2013-07-25 15:10:00,86.7,65.3,29.96,SSW,203,8.9,9.6,49,0.00,,,0.00,WUHU216HW,2013-07-25 20:10:00,
2013-07-25 15:15:00,85.8,65.1,29.96,South,180,3.8,8.9,50,0.00,,,0.00,WUHU216HW,2013-07-25 20:15:00,
2013-07-25 15:20:00,86.5,65.7,29.96,NW,315,0.0,8.9,50,0.00,,,0.00,WUHU216HW,2013-07-25 20:20:00,
2013-07-25 15:25:00,87.6,66.7,29.96,SSE,158,5.3,5.3,48,0.00,,,0.00,WUHU216HW,2013-07-25 20:25:00,
2013-07-25 15:30:00,88.5,65.6,29.96,SSW,203,4.4,11.4,47,0.00,,,0.00,WUHU216HW,2013-07-25 20:30:00,
2013-07-25 15:35:00,89.6,65.3,29.95,SSW,203,5.8,11.4,45,0.00,,,0.00,WUHU216HW,2013-07-25 20:35:00,
2013-07-25 15:40:00,87.9,63.2,29.96,South,180,3.1,11.6,44,0.00,,,0.00,WUHU216HW,2013-07-25 20:40:00,
2013-07-25 15:45:00,87.0,65.0,29.96,SSW,203,3.1,11.6,48,0.00,,,0.00,WUHU216HW,2013-07-25 20:45:00,
2013-07-25 15:50:00,87.6,65.4,29.95,SW,225,3.8,3.8,48,0.00,,,0.00,WUHU216HW,2013-07-25 20:50:00,
2013-07-25 15:56:00,88.1,66.1,29.95,South,180,1.5,3.8,48,0.00,,,0.00,WUHU216HW,2013-07-25 20:56:00,
2013-07-25 16:01:00,87.6,64.8,29.95,SSW,203,4.9,7.3,47,0.00,,,0.00,WUHU216HW,2013-07-25 21:01:00,
2013-07-25 16:06:00,86.7,65.3,29.95,SSE,158,2.4,7.3,49,0.00,,,0.00,WUHU216HW,2013-07-25 21:06:00,
2013-07-25 16:11:00,87.4,65.9,29.94,South,180,0.0,5.8,49,0.00,,,0.00,WUHU216HW,2013-07-25 21:11:00,
2013-07-25 16:16:00,87.4,64.7,29.95,WSW,248,4.2,5.8,47,0.00,,,0.00,WUHU216HW,2013-07-25 21:16:00,
2013-07-25 16:21:00,87.0,64.3,29.95,South,180,4.2,6.4,47,0.00,,,0.00,WUHU216HW,2013-07-25 21:21:00,
2013-07-25 16:26:00,87.2,63.9,29.95,South,180,7.8,7.8,46,0.00,,,0.00,WUHU216HW,2013-07-25 21:26:00,
2013-07-25 16:31:00,86.7,63.4,29.95,West,270,5.1,7.8,46,0.00,,,0.00,WUHU216HW,2013-07-25 21:31:00,
2013-07-25 16:36:00,86.5,64.5,29.95,West,270,3.8,7.8,48,0.00,,,0.00,WUHU216HW,2013-07-25 21:36:00,
2013-07-25 16:41:00,86.9,63.5,29.94,SSE,158,4.2,5.8,46,0.00,,,0.00,WUHU216HW,2013-07-25 21:41:00,
2013-07-25 16:46:00,88.5,64.3,29.94,SSE,158,2.2,5.8,45,0.00,,,0.00,WUHU216HW,2013-07-25 21:46:00,
2013-07-25 16:52:00,89.2,65.6,29.94,SSE,158,2.6,7.3,46,0.00,,,0.00,WUHU216HW,2013-07-25 21:52:00,
2013-07-25 16:57:00,88.5,65.0,29.94,SW,225,6.2,7.3,46,0.00,,,0.00,WUHU216HW,2013-07-25 21:57:00,
2013-07-25 17:02:00,88.3,65.4,29.95,South,180,4.0,6.2,47,0.00,,,0.00,WUHU216HW,2013-07-25 22:02:00,
2013-07-25 17:07:00,87.2,64.5,29.95,SSW,203,6.2,6.2,47,0.00,,,0.00,WUHU216HW,2013-07-25 22:07:00,
2013-07-25 17:12:00,86.0,64.3,29.95,SSE,158,4.2,6.2,48,0.00,,,0.00,WUHU216HW,2013-07-25 22:12:00,
2013-07-25 17:17:00,85.1,63.8,29.94,SSW,203,5.1,8.5,49,0.00,,,0.00,WUHU216HW,2013-07-25 22:17:00,
2013-07-25 17:22:00,84.3,64.3,29.95,WSW,248,2.9,8.5,51,0.00,,,0.00,WUHU216HW,2013-07-25 22:22:00,
2013-07-25 17:27:00,84.0,64.5,29.94,SSE,158,2.9,5.1,52,0.00,,,0.00,WUHU216HW,2013-07-25 22:27:00,
2013-07-25 17:33:00,84.0,65.0,29.95,South,180,6.0,6.0,53,0.00,,,0.00,WUHU216HW,2013-07-25 22:33:00,
2013-07-25 17:38:00,83.4,65.0,29.94,South,180,0.8,8.7,54,0.00,,,0.00,WUHU216HW,2013-07-25 22:38:00,
2013-07-25 17:43:00,83.6,64.7,29.94,South,180,4.6,8.7,53,0.00,,,0.00,WUHU216HW,2013-07-25 22:43:00,
2013-07-25 17:48:00,83.3,64.8,29.94,South,180,6.9,6.9,54,0.00,,,0.00,WUHU216HW,2013-07-25 22:48:00,
2013-07-25 17:53:00,82.9,64.5,29.94,SSW,203,4.2,6.9,54,0.00,,,0.00,WUHU216HW,2013-07-25 22:53:00,
2013-07-25 17:58:00,83.1,64.6,29.94,South,180,7.1,7.1,54,0.00,,,0.00,WUHU216HW,2013-07-25 22:58:00,
2013-07-25 18:03:00,82.9,64.5,29.94,South,180,2.4,7.1,54,0.00,,,0.00,WUHU216HW,2013-07-25 23:03:00,
2013-07-25 18:08:00,82.0,63.6,29.94,ESE,113,3.8,8.9,54,0.00,,,0.00,WUHU216HW,2013-07-25 23:08:00,
2013-07-25 18:13:00,81.3,63.5,29.94,SSE,158,5.1,8.9,55,0.00,,,0.00,WUHU216HW,2013-07-25 23:13:00,
2013-07-25 18:18:00,80.9,63.7,29.94,South,180,4.6,5.8,56,0.00,,,0.00,WUHU216HW,2013-07-25 23:18:00,
2013-07-25 18:23:00,80.7,64.0,29.93,SSW,203,4.2,4.6,57,0.00,,,0.00,WUHU216HW,2013-07-25 23:23:00,
2013-07-25 18:28:00,80.4,64.2,29.93,South,180,2.6,4.6,58,0.00,,,0.00,WUHU216HW,2013-07-25 23:28:00,
2013-07-25 18:33:00,79.8,64.3,29.93,SSE,158,3.1,4.2,59,0.00,,,0.00,WUHU216HW,2013-07-25 23:33:00,
2013-07-25 18:38:00,79.7,64.6,29.93,South,180,1.5,4.0,60,0.00,,,0.00,WUHU216HW,2013-07-25 23:38:00,
2013-07-25 18:43:00,79.5,64.5,29.93,SSE,158,5.1,5.1,60,0.00,,,0.00,WUHU216HW,2013-07-25 23:43:00,
2013-07-25 18:48:00,78.9,64.4,29.93,SSE,158,0.0,5.1,61,0.00,,,0.00,WUHU216HW,2013-07-25 23:48:00,
2013-07-25 18:53:00,78.6,64.5,29.93,SSE,158,0.0,1.7,62,0.00,,,0.00,WUHU216HW,2013-07-25 23:53:00,
2013-07-25 18:58:00,78.6,64.9,29.93,SSW,203,2.9,2.9,63,0.00,,,0.00,WUHU216HW,2013-07-25 23:58:00,
2013-07-25 19:03:00,78.6,65.4,29.93,SSE,158,0.0,2.9,64,0.00,,,0.00,WUHU216HW,2013-07-26 00:03:00,
2013-07-25 19:08:00,78.6,65.4,29.93,SSE,158,0.0,4.4,64,0.00,,,0.00,WUHU216HW,2013-07-26 00:08:00,
2013-07-25 19:13:00,78.4,65.2,29.93,SE,135,0.0,4.4,64,0.00,,,0.00,WUHU216HW,2013-07-26 00:13:00,
2013-07-25 19:18:00,78.2,65.0,29.93,SSW,203,2.9,2.9,64,0.00,,,0.00,WUHU216HW,2013-07-26 00:18:00,
2013-07-25 19:23:00,78.0,65.3,29.93,ESE,113,2.0,4.2,65,0.00,,,0.00,WUHU216HW,2013-07-26 00:23:00,
2013-07-25 19:28:00,77.9,65.6,29.93,SSW,203,2.2,5.3,66,0.00,,,0.00,WUHU216HW,2013-07-26 00:28:00,
2013-07-25 19:34:00,77.5,65.2,29.93,South,180,2.0,5.3,66,0.00,,,0.00,WUHU216HW,2013-07-26 00:34:00,
2013-07-25 19:39:00,77.5,65.6,29.93,SSW,203,5.1,5.1,67,0.00,,,0.00,WUHU216HW,2013-07-26 00:39:00,
2013-07-25 19:44:00,77.3,65.5,29.92,SE,135,3.3,5.8,67,0.00,,,0.00,WUHU216HW,2013-07-26 00:44:00,
2013-07-25 19:49:00,77.0,65.2,29.93,SSE,158,2.4,5.8,67,0.00,,,0.00,WUHU216HW,2013-07-26 00:49:00,
2013-07-25 19:54:00,76.8,65.4,29.93,SSE,158,2.9,6.9,68,0.00,,,0.00,WUHU216HW,2013-07-26 00:54:00,
2013-07-25 19:59:00,76.6,65.3,29.93,South,180,4.0,6.9,68,0.00,,,0.00,WUHU216HW,2013-07-26 00:59:00,
2013-07-25 20:04:00,76.6,65.3,29.93,South,180,2.2,4.4,68,0.00,,,0.00,WUHU216HW,2013-07-26 01:04:00,
2013-07-25 20:09:00,76.4,65.1,29.94,South,180,5.8,5.8,68,0.00,,,0.00,WUHU216HW,2013-07-26 01:09:00,
2013-07-25 20:14:00,76.2,64.9,29.94,SSE,158,2.2,5.8,68,0.00,,,0.00,WUHU216HW,2013-07-26 01:14:00,
2013-07-25 20:19:00,76.2,65.3,29.94,SSE,158,0.0,5.8,69,0.00,,,0.00,WUHU216HW,2013-07-26 01:19:00,
2013-07-25 20:24:00,76.1,65.2,29.95,South,180,1.1,3.3,69,0.00,,,0.00,WUHU216HW,2013-07-26 01:24:00,
2013-07-25 20:29:00,75.9,65.0,29.94,SSE,158,2.0,3.5,69,0.00,,,0.00,WUHU216HW,2013-07-26 01:29:00,
2013-07-25 20:34:00,75.9,65.0,29.95,South,180,4.0,4.0,69,0.00,,,0.00,WUHU216HW,2013-07-26 01:34:00,
2013-07-25 20:39:00,75.9,65.0,29.94,SSE,158,2.4,4.0,69,0.00,,,0.00,WUHU216HW,2013-07-26 01:39:00,
2013-07-25 20:44:00,75.7,64.8,29.94,SSE,158,2.6,2.6,69,0.00,,,0.00,WUHU216HW,2013-07-26 01:44:00,
2013-07-25 20:49:00,75.7,65.3,29.94,SSE,158,3.8,6.2,70,0.00,,,0.00,WUHU216HW,2013-07-26 01:49:00,
2013-07-25 20:55:00,75.5,65.1,29.94,SSE,158,0.0,6.2,70,0.00,,,0.00,WUHU216HW,2013-07-26 01:55:00,
2013-07-25 21:00:00,75.3,65.3,29.94,SSE,158,1.3,2.9,71,0.00,,,0.00,WUHU216HW,2013-07-26 02:00:00,
2013-07-25 21:05:00,75.3,65.3,29.94,South,180,1.3,2.4,71,0.00,,,0.00,WUHU216HW,2013-07-26 02:05:00,
2013-07-25 21:10:00,75.3,65.3,29.94,South,180,2.6,2.6,72,0.00,,,0.00,WUHU216HW,2013-07-26 02:10:00,
2013-07-25 21:15:00,75.3,65.7,29.95,South,180,2.6,2.9,72,0.00,,,0.00,WUHU216HW,2013-07-26 02:15:00,
2013-07-25 21:20:00,75.0,65.3,29.95,SSE,158,0.0,3.5,72,0.00,,,0.00,WUHU216HW,2013-07-26 02:20:00,
2013-07-25 21:25:00,75.0,65.3,29.94,SSE,158,0.0,3.5,72,0.00,,,0.00,WUHU216HW,2013-07-26 02:25:00,
2013-07-25 21:30:00,74.4,65.2,29.94,SSE,158,1.5,2.9,73,0.00,,,0.00,WUHU216HW,2013-07-26 02:30:00,
2013-07-25 21:35:00,74.1,65.3,29.95,South,180,2.0,2.9,74,0.00,,,0.00,WUHU216HW,2013-07-26 02:35:00,
2013-07-25 21:40:00,73.9,65.1,29.95,SSE,158,0.0,2.9,74,0.00,,,0.00,WUHU216HW,2013-07-26 02:40:00,
2013-07-25 21:45:00,73.7,65.3,29.95,South,180,0.0,2.4,75,0.00,,,0.00,WUHU216HW,2013-07-26 02:45:00,
2013-07-25 21:50:00,73.4,65.4,29.95,South,180,3.5,3.5,76,0.00,,,0.00,WUHU216HW,2013-07-26 02:50:00,
2013-07-25 21:55:00,73.4,65.7,29.95,SSW,203,0.0,3.5,77,0.00,,,0.00,WUHU216HW,2013-07-26 02:55:00,
2013-07-25 22:00:00,73.2,65.6,29.95,South,180,4.2,4.2,77,0.00,,,0.00,WUHU216HW,2013-07-26 03:00:00,
2013-07-25 22:05:00,73.2,65.6,29.96,SW,225,2.2,6.0,77,0.00,,,0.00,WUHU216HW,2013-07-26 03:05:00,
2013-07-25 22:10:00,73.4,65.4,29.95,South,180,4.4,6.0,76,0.00,,,0.00,WUHU216HW,2013-07-26 03:10:00,
2013-07-25 22:16:00,73.7,65.7,29.96,SE,135,5.1,5.1,76,0.00,,,0.00,WUHU216HW,2013-07-26 03:16:00,
2013-07-25 22:21:00,73.9,65.5,29.96,SSW,203,4.6,5.1,75,0.00,,,0.00,WUHU216HW,2013-07-26 03:21:00,
2013-07-25 22:26:00,74.1,65.7,29.96,SSW,203,2.0,4.6,75,0.00,,,0.00,WUHU216HW,2013-07-26 03:26:00,
2013-07-25 22:31:00,74.1,65.7,29.96,South,180,2.0,2.0,75,0.00,,,0.00,WUHU216HW,2013-07-26 03:31:00,
2013-07-25 22:36:00,73.9,65.5,29.96,South,180,0.0,2.0,75,0.00,,,0.00,WUHU216HW,2013-07-26 03:36:00,
2013-07-25 22:41:00,73.9,65.1,29.96,SSW,203,2.4,2.4,74,0.00,,,0.00,WUHU216HW,2013-07-26 03:41:00,
2013-07-25 22:46:00,73.9,65.5,29.96,South,180,2.2,2.6,75,0.00,,,0.00,WUHU216HW,2013-07-26 03:46:00,
2013-07-25 22:51:00,73.7,65.3,29.96,South,180,2.9,2.9,75,0.00,,,0.00,WUHU216HW,2013-07-26 03:51:00,
2013-07-25 22:57:00,73.5,65.1,29.96,South,180,2.6,2.9,75,0.00,,,0.00,WUHU216HW,2013-07-26 03:57:00,
2013-07-25 23:01:00,73.4,65.4,29.96,South,180,2.4,2.9,76,0.00,,,0.00,WUHU216HW,2013-07-26 04:01:00,
2013-07-25 23:02:00,73.4,65.4,29.95,South,180,2.2,2.6,76,0.00,,,0.00,WUHU216HW,2013-07-26 04:02:00,
2013-07-25 23:07:00,73.2,65.2,29.95,South,180,0.0,2.4,76,0.00,,,0.00,WUHU216HW,2013-07-26 04:07:00,
2013-07-25 23:12:00,73.0,65.0,29.95,SSE,158,0.0,1.3,76,0.00,,,0.00,WUHU216HW,2013-07-26 04:12:00,
2013-07-25 23:18:00,72.8,64.8,29.95,SSE,158,0.0,0.0,76,0.00,,,0.00,WUHU216HW,2013-07-26 04:18:00,
2013-07-25 23:23:00,72.5,64.8,29.95,South,180,2.0,2.0,77,0.00,,,0.00,WUHU216HW,2013-07-26 04:23:00,
2013-07-25 23:28:00,72.3,64.7,29.95,South,180,2.0,2.0,77,0.00,,,0.00,WUHU216HW,2013-07-26 04:28:00,
2013-07-25 23:33:00,72.3,65.0,29.95,SSE,158,0.0,2.0,78,0.00,,,0.00,WUHU216HW,2013-07-26 04:33:00,
2013-07-25 23:38:00,72.1,64.9,29.94,South,180,2.4,2.4,79,0.00,,,0.00,WUHU216HW,2013-07-26 04:38:00,
2013-07-25 23:43:00,71.9,65.1,29.94,South,180,0.0,2.4,79,0.00,,,0.00,WUHU216HW,2013-07-26 04:43:00,
2013-07-25 23:48:00,71.7,64.9,29.94,South,180,0.0,2.4,79,0.00,,,0.00,WUHU216HW,2013-07-26 04:48:00,
2013-07-25 23:53:00,71.4,64.5,29.95,West,270,0.0,1.1,79,0.00,,,0.00,WUHU216HW,2013-07-26 04:53:00,
2013-07-25 23:58:00,71.4,64.9,29.95,WSW,248,0.0,0.0,80,0.00,,,0.00,WUHU216HW,2013-07-26 04:58:00,